Weather in Xining

China     36°38′21″N   101°44′33″E
temp.,
°C
wind,
m/s
gust,
m/s
humid.,
%
clouds,
%
prec.,
mm/h
press.,
hPa
HPBL,
m
17 april, sat
sat1723:00+5se792790 0.0 1020850
02:00+3s3629100 0.0 1021379
05:00+1sw1135100 0.0 102116
08:00+2sw1132100 0.0 1022206
11:00+4s2126100 0.0 1020763
14:00+7se1124100 0.0 1016750
17:00+10se3321100 0.0 1012803
20:00+8se232886 0.0 101376
18 april, sun
sun1823:00+6e11341 0.0 101713
02:00+4wnw00370 0.0 101711
05:00+3nw11410 0.0 101610
08:00+4nnw11390 0.0 101784
11:00+9s01260 0.0 1014627
14:00+14se11181 0.0 1008911
17:00+18ese441233 0.0 10011913
20:00+13se61223100 0.0 1004525
19 april, mon
mon1923:00+11ese3628100 0.0 1008327
02:00+10se4635100 0.0 1009487
05:00+4nne4476100 0.7 1013557
08:00+3n2492100 2.0 1014362
11:00+4nw2287100 0.7 1014505
14:00+8ne1264100 0.9 10101115
17:00+10se564493 0.3 10061577
20:00+8ese6753100 0.4 10081173
20 april, tue
tue2023:00+7se2457100 0.1 1011819
02:00+6s3261100 0.1 1010613
05:00+3sw2188100 0.2 1011376
08:00+2sw1196100 1.7 1012350
11:00+3sw1195100 0.8 1012433
14:00+5ese1182100 1.1 1010520
17:00+9ene225917 0.0 1007703
20:00+9ese22562 0.0 100640
21 april, wed
wed2123:00+7e1168100 0.0 101015
02:00+5sse2279100 0.0 101231
05:00+4n22805 0.0 101323
08:00+5nnw12641 0.0 1014134
11:00+10sse13400 0.0 1011820
14:00+17wnw711110 0.0 10053231
17:00+18wnw71085 0.0 10033521
20:00+14ene211477 0.0 100311